sat.trackr.live / text

‹ back to catalog

STARLINK-34960

NORAD 65219 · 2025-176X

PAYLOAD ACTIVE UNKNOWN

§ Identity

Operator
Country
US
Launch date
2025-08-14
Launch site
AFETR
Launch vehicle
Mass (kg)
RCS (m²)

Purposes: comms

External: N2YO · Heavens-Above · Gunter

§ Orbital elements

Epoch: 2026-09-20T10:57:27.876960Z

Period
93.85 min
Inclination
53.1579°
Eccentricity
0.0000975
Mean motion
15.34368546 rev/d
Perigee alt
462.1 km
Apogee alt
463.5 km
Semi-major
6,840.9 km
B*
1.2756e-5
RAAN
324.2569°
Arg perigee
87.7560°
Mean anomaly
272.3554°
Rev number
6,299

§ Raw data

STARLINK-349601 65219U 25176X   26263.45657265  .00000055  00000+0  12756-4 0  99972 65219  53.1579 324.2569 0000975  87.7560 272.3554 15.34368546 62999

JSON: /api/v1/satellites/65219 · /tle

For live sub-satellite position, see the globe view (requires WebGL).

§ Visibility from observer

Set your observer location to see the next 7 days of passes ≥ 10°. The values pass through the URL so the page stays shareable.

No JS? Fill the form by hand. The geolocation button needs JavaScript.